Regional Weather Roundup
Issued by NWS

Home | Current Version | Previous Version | Graphics & Text | Print | Product List | Glossary On
Versions: 1 2 3 4 5 6 7 8 9 10 11 12 13 14 15 16 17 18 19 20 21 22 23 24 25 26 27 28 29 30 31 32 33 34 35 36 37 38 39 40 41 42 43 44 45 46 47 48 49 50
000
ASUS43 KDTX 230501
RWRMI
MICHIGAN HOURLY REGIONAL WEATHER ROUNDUP
NATIONAL WEATHER SERVICE DETROIT/PONTIAC MI
1200 AM EST MON JAN 23 2017

NOTE: "FAIR" INDICATES FEW OR NO CLOUDS BELOW 12,000 FEET WITH NO
SIGNIFICANT WEATHER AND/OR OBSTRUCTION TO VISIBILITY.

MIZ047>049-052>055-059>063-066>070-074>076-081>083-230600-
SOUTHEAST LOWER MICHIGAN

CITY           SKY/WX    TMP DP  RH WIND       PRES   REMARKS
ADRIAN         CLOUDY    44  44 100 NE8       29.63F FOG
ALMA           FOG       38  38  99 CALM      29.68F VSB 1/2
ANN ARBOR      FOG       46  46 100 N6        29.62F VSB 1/2
BAD AXE        FOG       38  38 100 SE5       29.68F VSB 3/4 WCI  34
CARO           FOG       37  37 100 N3        29.66F VSB 3/4
DETROIT CITY   FOG       43  43 100 NE5       29.64F VSB 1/4
DETROIT        FOG       46  46 100 NE7       29.63F VSB 1/2
FLINT          FOG       40  39  97 N3        29.65F VSB 3/4
GROSSE ILE     FOG       42  41  99 NE5       29.63S VSB 1/2
HILLSDALE      FOG       45  45 100 NE5       29.61F VSB 1
HOWELL         FOG       40  40  97 CALM      29.64F VSB 1

CITY           SKY/WX    TMP DP  RH WIND       PRES   REMARKS
JACKSON        FOG       43  42  97 NE3       29.63F VSB 1/2
LAMBERTVILLE   CLOUDY    42  41  95 E6        29.62F FOG
LANSING        FOG       41  38  89 N3        29.66F VSB 3/4
LAPEER         FOG       41  41 100 CALM      29.65F VSB 1/4
MASON          FOG       40  40 100 N3        29.65S VSB 3/4
MONROE         FOG       42  42 100 E3        29.62S VSB 3/4
MT. CLEMENS    FOG       41  41 100 NE3       29.63F VSB 1/2
PONTIAC        FOG       43  42  97 NE3       29.63F VSB 1/4
PORT HOPE        N/A     38  38 100 SE10      29.68R WCI  31
PORT HURON     FOG       39  39 100 NE3       29.66F VSB 1/2
TRI CITIES     FOG       38  38 100 N5        29.68S VSB 1/4 WCI  34
MIDLAND        FOG       38  38  97 CALM      29.68S VSB 3/4
TROY           FOG       45  43  95 NE5       29.65F VSB 1/2
SAGINAW HB     CLOUDY    36  34  93 N3        29.67F FOG
$$
MIZ043>046-050>051-056>058-064>065-071>073-077>080-230600-
SOUTHWEST LOWER MICHIGAN

CITY           SKY/WX    TMP DP  RH WIND       PRES   REMARKS
BATTLE CREEK   CLOUDY    41  41 100 N7        29.65S FOG
BENTON HARBOR  CLOUDY    40  38  93 VRB3      29.66S FOG
BIG RAPIDS     CLOUDY    35  35  98 CALM      29.68R FOG
COLDWATER      FOG       43  43 100 NE3       29.62F VSB 1/2
FREMONT        FOG       38  38 100 CALM      29.69S VSB 1/2
HOLLAND        CLOUDY    41  39  93 CALM      29.68S
GRAND RAPIDS   FOG       41  40  96 N6        29.66F VSB 1
IONIA          FOG       39  38  99 CALM      29.66F VSB 1/4
KALAMAZOO      FOG       42  40  92 N7        29.65S VSB 3/4
LUDINGTON      FOG       35  35 100 CALM      29.70S VSB<1/4
MARSHALL       CLOUDY    41  41  98 N3        29.63F FOG
MOUNT PLEASANT FOG       37  36  99 CALM      29.68S VSB 1/2
MUSKEGON       CLOUDY    41  39  93 N3        29.70R FOG
SOUTH HAVEN    CLOUDY    41  40  98 N6        29.66F FOG
$$
MIZ016>042-230600-
NORTHERN LOWER MICHIGAN

CITY           SKY/WX    TMP DP  RH WIND       PRES   REMARKS
ALPENA         FOG       37  36  96 CALM      29.71R VSB 1/2
BEAVER ISLAND  CLOUDY    35  35 100 E5        29.70S WCI  31
BELLAIRE       CLOUDY    34  34  99 CALM      29.69S FOG
CADILLAC       FOG       37  35  94 CALM      29.67R VSB 3/4
CHARLEVOIX     CLOUDY    36  36 100 CALM      29.72S FOG
FRANKFORT      FOG      N/A N/A N/A CALM      29.70S VSB 3/4
GAYLORD        FOG       38  35  89 CALM      29.67S VSB 1/2
GRAYLING       FOG       37  36  99 CALM      29.69R VSB 1/2
HARBOR SPRINGS FOG       35  35  99 CALM      29.70R VSB 1/2
HOUGHTON LAKE  FOG       37  36  96 CALM      29.68R VSB 1/2
MANISTEE       FOG       36  36 100 W5        29.70S VSB 1/4 WCI  32
OSCODA         FOG       38  37  97 CALM      29.70R VSB 3/4
PELLSTON       FOG       35  33  92 CALM      29.71R VSB 1/4
ROGERS CITY    FOG       37  36  96 SE3       29.72R VSB 1
TRAVERSE CITY  FOG       38  37  97 CALM      29.69R VSB 1/4
$$
MIZ007>008-015-230600-
EASTERN UPPER MICHIGAN

CITY           SKY/WX    TMP DP  RH WIND       PRES   REMARKS
KINROSS        LGT RAIN  36  35  96 E9        29.72R VSB 3/4 WCI  29
MACKINAC ISLAN FOG       35  35 100 E8        29.71R VSB 1/4 WCI  28
NEWBERRY       CLOUDY    34  33  96 CALM      29.70R FOG
S. S. MARIE    FOG       38  37  97 E3        29.72R VSB 1/2
MUNISING         N/A     34  34 100 CALM      29.70R
$$
MIZ004>006-011>014-085-230600-
CENTRAL UPPER MICHIGAN

CITY           SKY/WX    TMP DP  RH WIND       PRES   REMARKS
MANISTIQUE     CLOUDY    35  34  97 E6        29.70R FOG     WCI  30
ESCANABA       FOG       35  34  96 CALM      29.71R VSB 1/2
SAWYER-GWINN   FOG       34  34  99 CALM      29.69R VSB 1/4
$$
MIZ001>003-009>011-084-230600-
WESTERN UPPER MICHIGAN

CITY           SKY/WX    TMP DP  RH WIND       PRES   REMARKS
IRON MOUNTAIN  CLOUDY    36  33  89 NW3       29.68R
HOUGHTON       FOG       34  33  96 NW8       29.68R VSB 1/4 WCI  27
COPPER HARBOR    N/A     35  35 100 CALM      29.67S
IRONWOOD       CLOUDY    33  33 100 W3        29.72S FOG
$$

ABBREVIATIONS USED IN REMARKS
   TC - TEMPERATURE IN CELSIUS
  WCI - WIND CHILL INDEX
   HX - HEAT INDEX
  VSB - VISIBILITY





USA.gov is the U.S. government's official web portal to all federal, state and local government web resources and services.